C/2018 A3 ( ATLAS )

Japanese version
Home page
Updated on December 9, 2019

---------------------------------------------------------------------

* Profile

Discovery Date January 10, 2018
Magnitude 18.7 mag
Discoverer Asteroid Terrestrial-impact Last Alert System (ATLAS) search program

* Pictures

* Orbital Elements

Epoch 2018 Dec. 28.0 TT = JDT 2458480.5
T 2019 Jan. 12.86294 TT                                 Williams
q   3.2767187            (2000.0)            P               Q
z  +0.0020058      Peri.   86.42646     -0.24776864     +0.95551836
 +/-0.0000004      Node   194.27956     +0.40380039     +0.25195856
e   0.9934275      Incl.  139.56197     +0.88065654     +0.15330212
From 1315 observations 2018 Jan. 10-2019 Nov. 5, mean residual 0".5.

* Finding Charts

* Magnitudes Graph

        m1 = 8.0 + 5 log d + 10.0 log r

---------------------------------------------------------------------

The orbital elements are published on M.P.E.C. 2019-V116.
The charts are made with StellaNavigator Ver.10 (AstroArts).
The magnitudes graphs are made with Comet for Windows.

---------------------------------------------------------------------

Copyright(C) Seiichi Yoshida (comet@aerith.net). All rights reserved.